TimeEST,TemperatureF,Dew PointF,Humidity,Sea Level PressureIn,VisibilityMPH,Wind Direction,Wind SpeedMPH,Gust SpeedMPH,PrecipitationIn,Events,Conditions,WindDirDegrees,DateUTC
12:53 AM,53.1,48.9,86,30.19,9.0,NW,6.9,-,N/A,,Overcast,320,2012-11-16 05:53:00
1:53 AM,52.0,48.9,89,30.19,7.0,NNW,9.2,-,N/A,,Overcast,330,2012-11-16 06:53:00
2:28 AM,53.6,48.2,82,30.20,8.0,NNW,11.5,-,N/A,,Overcast,340,2012-11-16 07:28:00
2:53 AM,52.0,48.0,86,30.19,10.0,North,10.4,-,N/A,,Overcast,350,2012-11-16 07:53:00
3:53 AM,52.0,48.0,86,30.18,10.0,North,10.4,-,N/A,,Overcast,350,2012-11-16 08:53:00
4:53 AM,52.0,48.0,86,30.18,10.0,NNW,9.2,-,N/A,,Overcast,340,2012-11-16 09:53:00
5:53 AM,52.0,48.0,86,30.19,10.0,North,9.2,-,N/A,,Overcast,350,2012-11-16 10:53:00
6:39 AM,51.8,48.2,88,30.21,2.5,NNW,10.4,-,N/A,,Overcast,340,2012-11-16 11:39:00
6:53 AM,51.1,48.9,92,30.20,2.5,North,11.5,-,N/A,,Overcast,360,2012-11-16 11:53:00
7:53 AM,51.1,48.9,92,30.22,2.5,North,10.4,-,N/A,,Overcast,360,2012-11-16 12:53:00
8:46 AM,51.8,48.2,88,30.24,4.0,North,12.7,-,N/A,,Overcast,360,2012-11-16 13:46:00
8:53 AM,52.0,48.0,86,30.22,4.0,North,11.5,-,N/A,,Overcast,350,2012-11-16 13:53:00
9:53 AM,52.0,48.0,86,30.23,6.0,NNW,10.4,-,N/A,,Overcast,340,2012-11-16 14:53:00
10:53 AM,53.1,46.9,80,30.24,7.0,NNW,9.2,-,N/A,,Overcast,330,2012-11-16 15:53:00
11:53 AM,54.0,48.0,80,30.22,7.0,North,12.7,-,N/A,,Overcast,350,2012-11-16 16:53:00
12:53 PM,54.0,48.0,80,30.21,8.0,North,9.2,-,N/A,,Overcast,350,2012-11-16 17:53:00
1:06 PM,53.6,48.2,82,30.22,8.0,NNW,9.2,-,N/A,,Overcast,340,2012-11-16 18:06:00
1:53 PM,55.0,48.9,80,30.19,8.0,NNW,10.4,-,N/A,,Overcast,340,2012-11-16 18:53:00
2:53 PM,55.9,48.9,77,30.18,8.0,North,12.7,-,N/A,,Overcast,350,2012-11-16 19:53:00
3:53 PM,55.9,50.0,80,30.18,7.0,North,12.7,-,N/A,,Overcast,360,2012-11-16 20:53:00
4:53 PM,55.0,50.0,83,30.19,8.0,North,11.5,-,N/A,,Overcast,10,2012-11-16 21:53:00
5:53 PM,55.9,50.0,80,30.19,7.0,North,13.8,-,N/A,,Overcast,360,2012-11-16 22:53:00
6:53 PM,55.0,50.0,83,30.20,8.0,North,16.1,-,N/A,,Overcast,10,2012-11-16 23:53:00
7:53 PM,55.0,50.0,83,30.20,9.0,North,17.3,-,N/A,,Overcast,360,2012-11-17 00:53:00
8:53 PM,55.0,50.0,83,30.20,9.0,North,20.7,-,N/A,,Overcast,10,2012-11-17 01:53:00
9:53 PM,54.0,48.9,83,30.21,9.0,North,19.6,-,N/A,,Overcast,350,2012-11-17 02:53:00
10:53 PM,54.0,48.9,83,30.21,10.0,North,18.4,-,N/A,,Overcast,360,2012-11-17 03:53:00
11:53 PM,55.0,48.9,80,30.20,10.0,North,13.8,-,N/A,,Overcast,350,2012-11-17 04:53:00